[[{"header":{"parameterUnit":"m.s-1","parameterCategory":1,"la1":30.2991,"la2":30.254,"lo1":-89.0895,"lo2":-89.0444,"dy":0.0017,"dx":0.0017,"nx":28,"ny":28,"refTime":"2024-04-20T03:00:00:Z","depth":0,"parameterNumber":2,"parameterNumberName":"U-component_of_WINDS"},"data":[0,0,0,0,0,0,0,0,0,0,0,0,0,0,0,0,0,0,0,0,0,0,0,0,0,0,0,0,0,0,0,0,0,0,0,0,0,0,0,0,0,0,0,0,0,0,0,0,0,0,0,0,0,0,0,0,0,0,0.0765,0.0766,0,0.0851,0.0852,0.0853,0.0875,0.0874,0.0874,0.0873,0.0965,0.0968,0.0971,0,0,0,0,0,0,0,0,0,0,0,0,0,0.062,0.0623,0.0765,0.0766,0.0767,0.0851,0.0852,0.0854,0.0875,0.0874,0.0873,0.0873,0.0964,0.0968,0.0971,0,0,0,0,0,0,0,0,0,0,0,0,0,0.0693,0.0624,0.0764,0.0787,0.079,0.0851,0.0852,0.0854,0.0875,0.0874,0.0873,0.0872,0.0963,0.0967,0.0972,0.1016,0,0,0.0985,0.0987,0,0,0,0,0,0,0,0,0.0688,0.0698,0.0783,0.0786,0.0789,0.0851,0.0835,0.0908,0.0875,0.0843,0.0873,0.0872,0.0928,0.0935,0.0954,0.1021,0.1025,0.0986,0.0988,0.099,0.0992,0,0,0,0,0,0,0,0.0683,0.0694,0.0799,0.0784,0.0788,0.0794,0.0804,0.0849,0.0889,0.0846,0.0847,0.0857,0.093,0.0949,0.0956,0.1026,0.0986,0.099,0.0992,0.0994,0.1134,0.1135,0,0,0,0,0,0,0.0674,0.069,0.0796,0.0802,0.0736,0.0798,0.0808,0.0832,0.0889,0.0897,0.0858,0.0858,0.0942,0.0951,0.0959,0.1015,0.099,0.0994,0.0997,0.1133,0.1134,0.1136,0,0,0,0,0,0,0.0671,0.0683,0.0793,0.0746,0.0761,0.0801,0.0828,0.0834,0.0854,0.0898,0.0906,0.087,0.0942,0.0953,0.1002,0.1019,0.0997,0.1001,0.1132,0.1134,0.1135,0.1127,0,0,0,0,0,0,0.0666,0.0682,0.0699,0.0746,0.0763,0.0833,0.0829,0.0837,0.0861,0.0862,0.0912,0.0919,0.0942,0.0995,0.1006,0.1024,0.1004,0.1131,0.1133,0.1134,0.1126,0.1128,0.113,0,0,0,0,0,0.0661,0.0694,0.0699,0.0712,0.0785,0.0834,0.0843,0.0868,0.0862,0.088,0.0908,0.0918,0.1015,0.1,0.1013,0.1032,0.113,0.1132,0.1134,0.1125,0.1128,0.113,0,0,0,0,0,0,0.0648,0.0701,0.0707,0.0756,0.079,0.0837,0.086,0.087,0.0907,0.0907,0.0937,0.0948,0.0994,0.1019,0.1001,0.1079,0.1072,0.1077,0.1061,0.1064,0.1066,0.1059,0.1008,0,0,0,0,0,0.0651,0.0685,0.073,0.0769,0.0785,0.082,0.0842,0.0858,0.0895,0.091,0.0942,0.0978,0.1017,0.1042,0.108,0.113,0.1141,0.115,0.1152,0.1153,0.1157,0.1185,0.119,0.1143,0.1143,0.1143,0,0,0.0657,0.069,0.071,0.0767,0.0795,0.0831,0.0832,0.087,0.0897,0.0916,0.0963,0.0988,0.1031,0.108,0.1104,0.1102,0.1173,0.1156,0.1157,0.1161,0.1188,0.1193,0.1197,0.1145,0.1145,0.1144,0,0,0.0686,0.0715,0.075,0.0778,0.082,0.0843,0.0851,0.0897,0.0914,0.0962,0.0977,0.101,0.1076,0.1106,0.113,0.117,0.118,0.1181,0.1192,0.1219,0.1223,0.1226,0.124,0.1245,0.1185,0.1185,0.1185,0,0.0689,0.0743,0.0767,0.0804,0.0829,0.0846,0.0883,0.0909,0.0962,0.0979,0.0976,0.1059,0.1089,0.1146,0.1155,0.1174,0.1185,0.1176,0.122,0.1224,0.1227,0.1241,0.1246,0.1185,0.1185,0.1185,0.1185,0,0.0744,0.0781,0.0804,0.0854,0.0881,0.0918,0.0948,0.0973,0.0987,0.101,0.1059,0.1095,0.1141,0.1156,0.117,0.1214,0.1212,0.1214,0.1208,0.1231,0.1245,0.125,0.1185,0.1185,0.1185,0.1185,0,0,0.0768,0.0829,0.0838,0.086,0.0908,0.0938,0.0975,0.1019,0.1039,0.1076,0.1108,0.1164,0.1166,0.1193,0.121,0.1234,0.1263,0.1234,0.1235,0.1238,0.1314,0.1312,0.1318,0.127,0.1271,0.1272,0.1311,0,0.0803,0.0869,0.0892,0.0947,0.0982,0.0999,0.1032,0.1065,0.1088,0.1121,0.1147,0.1185,0.1186,0.1202,0.1226,0.1254,0.1279,0.1252,0.1301,0.1303,0.129,0.1325,0.1323,0.1358,0.1316,0.1317,0.1318,0,0.0853,0.0888,0.0946,0.0989,0.1005,0.1034,0.1075,0.1107,0.1145,0.116,0.119,0.1205,0.1246,0.1238,0.1295,0.1276,0.1297,0.1314,0.1316,0.1322,0.1311,0.1331,0.137,0.1375,0.1327,0.1326,0.1325,0,0.0864,0.0926,0.0969,0.0988,0.1039,0.1059,0.1082,0.1119,0.1144,0.1181,0.1197,0.1238,0.1261,0.1293,0.132,0.1311,0.1374,0.1368,0.1388,0.1388,0.1401,0.14,0.1443,0.1415,0.1415,0.1415,0.1415,0,0.09,0.0935,0.0974,0.1001,0.1041,0.1067,0.1106,0.113,0.1163,0.1195,0.1213,0.1243,0.1276,0.1311,0.1332,0.1376,0.1386,0.14,0.1405,0.1398,0.1396,0.1412,0.1411,0.1416,0.1416,0.1416,0.1415,0,0.092,0.0947,0.0995,0.1039,0.1051,0.1079,0.1117,0.1144,0.1167,0.1207,0.1218,0.1255,0.1297,0.1326,0.138,0.1395,0.1441,0.1447,0.1428,0.143,0.1449,0.1446,0.1504,0.1513,0.1479,0.1479,0.1479,0,0.0941,0.0968,0.1015,0.1037,0.1059,0.1095,0.112,0.1147,0.1172,0.1218,0.1239,0.1281,0.1316,0.1382,0.1414,0.1455,0.1462,0.1479,0.1468,0.146,0.1462,0.146,0.1463,0.148,0.1481,0.1481,0.1481,0,0.0976,0.0988,0.1023,0.1062,0.1091,0.1123,0.1156,0.1174,0.1207,0.1235,0.1276,0.1304,0.1358,0.14,0.1444,0.1468,0.148,0.1484,0.1491,0.1484,0.1472,0.1478,0.1432,0.1483,0.1483,0.1482,0.1482,0.1482,0.0997,0.1022,0.1058,0.1096,0.1124,0.1154,0.1181,0.1207,0.1242,0.1287,0.1302,0.1345,0.1383,0.1443,0.1468,0.1503,0.1503,0.1512,0.1515,0.1517,0.1516,0.1466,0.1511,0.1511,0.1511,0.1511,0.1511,0,0.1033,0.1057,0.1092,0.1136,0.1166,0.1174,0.1211,0.1235,0.1273,0.1307,0.1341,0.1389,0.1429,0.1464,0.1507,0.1528,0.1535,0.1538,0.1537,0.1542,0.1515,0.1504,0.1532,0.1532,0.1532,0.1532,0.1532,0.1532,0.1055,0.1097,0.1114,0.117,0.1194,0.1235,0.1256,0.1284,0.1311,0.1363,0.1397,0.1419,0.1454,0.1498,0.1536,0.1546,0.156,0.1563,0.1573,0.1547,0.1544,0.1542,0.1532,0.1566,0.1566,0.1598,0.1598,0.1599]},{"header":{"parameterUnit":"m.s-1","parameterCategory":1,"la1":30.2991,"la2":30.254,"lo1":-89.0895,"lo2":-89.0444,"dy":0.0017,"dx":0.0017,"nx":28,"ny":28,"refTime":"2024-04-20T03:00:00:Z","depth":0,"parameterNumber":3,"parameterNumberName":"V-component_of_WINDS"},"data":[0,0,0,0,0,0,0,0,0,0,0,0,0,0,0,0,0,0,0,0,0,0,0,0,0,0,0,0,0,0,0,0,0,0,0,0,0,0,0,0,0,0,0,0,0,0,0,0,0,0,0,0,0,0,0,0,0,0,0.4212,0.4211,0,0.419,0.4189,0.4189,0.4143,0.4142,0.4141,0.414,0.4118,0.4118,0.4119,0,0,0,0,0,0,0,0,0,0,0,0,0,0.4215,0.4215,0.4212,0.4211,0.4211,0.419,0.4189,0.4189,0.4143,0.4142,0.4141,0.414,0.4118,0.4118,0.4119,0,0,0,0,0,0,0,0,0,0,0,0,0,0.4206,0.4215,0.4212,0.4186,0.4183,0.419,0.4189,0.4189,0.4143,0.4142,0.414,0.4139,0.4118,0.4118,0.4119,0.4149,0,0,0.412,0.412,0,0,0,0,0,0,0,0,0.4206,0.4205,0.419,0.4187,0.4185,0.4168,0.4182,0.4176,0.4144,0.4158,0.414,0.4138,0.4136,0.4135,0.4134,0.4148,0.4147,0.412,0.412,0.4121,0.4121,0,0,0,0,0,0,0,0.4207,0.4206,0.4203,0.419,0.4186,0.4175,0.4172,0.4181,0.4155,0.4157,0.4154,0.4152,0.4134,0.4133,0.4133,0.4147,0.412,0.4121,0.4121,0.4121,0.4187,0.4188,0,0,0,0,0,0,0.4211,0.4207,0.4204,0.4202,0.4192,0.4176,0.4173,0.4174,0.4155,0.4151,0.4153,0.4149,0.4133,0.4132,0.4132,0.4167,0.4121,0.4121,0.4121,0.4185,0.4187,0.4189,0,0,0,0,0,0,0.4211,0.4211,0.4205,0.4204,0.4202,0.4178,0.418,0.4175,0.4174,0.4152,0.4147,0.4157,0.4132,0.4131,0.4145,0.4165,0.4121,0.4122,0.4183,0.4186,0.4188,0.4237,0,0,0,0,0,0,0.4212,0.4212,0.4223,0.4204,0.4202,0.4218,0.4181,0.4175,0.4175,0.417,0.4154,0.415,0.4131,0.4145,0.4146,0.4165,0.4122,0.4182,0.4184,0.4187,0.4233,0.4241,0.4247,0,0,0,0,0,0.4212,0.4237,0.4224,0.4223,0.4216,0.422,0.4219,0.4196,0.4176,0.4188,0.4174,0.4151,0.4163,0.4147,0.4147,0.4167,0.418,0.4184,0.4187,0.4231,0.4239,0.4247,0,0,0,0,0,0,0.4259,0.4235,0.4219,0.4239,0.4232,0.4212,0.4225,0.4206,0.4204,0.42,0.4172,0.4168,0.4187,0.4178,0.4161,0.4196,0.4168,0.4172,0.4201,0.4209,0.4216,0.4217,0.4122,0,0,0,0,0,0.4272,0.4277,0.4255,0.4275,0.4272,0.425,0.425,0.4234,0.4225,0.4222,0.4209,0.4202,0.4204,0.4206,0.4207,0.4232,0.4228,0.4246,0.4253,0.4258,0.4262,0.4275,0.4283,0.42,0.42,0.42,0,0,0.4298,0.4285,0.429,0.4284,0.4277,0.4283,0.4247,0.4255,0.426,0.4223,0.4236,0.4226,0.4216,0.4237,0.4245,0.423,0.4284,0.4262,0.4267,0.4267,0.4279,0.4287,0.4294,0.4202,0.4202,0.4201,0,0,0.4349,0.434,0.4356,0.4349,0.4338,0.4323,0.4327,0.431,0.4302,0.4314,0.4287,0.4292,0.4297,0.4291,0.4289,0.4339,0.4318,0.434,0.4375,0.4388,0.4395,0.44,0.4419,0.4426,0.4343,0.4343,0.4344,0,0.4383,0.4391,0.4366,0.4376,0.4375,0.4342,0.4358,0.4353,0.4343,0.4343,0.4326,0.4332,0.4323,0.4341,0.4354,0.4353,0.4357,0.4341,0.4396,0.4401,0.4406,0.4423,0.443,0.4346,0.4346,0.4346,0.4345,0,0.4434,0.444,0.4454,0.4446,0.4446,0.4459,0.4436,0.444,0.4423,0.441,0.4423,0.4411,0.441,0.4413,0.4396,0.443,0.4421,0.4401,0.4372,0.4417,0.4433,0.4439,0.435,0.4349,0.4348,0.4348,0,0,0.4514,0.4491,0.4497,0.4493,0.4479,0.4483,0.4495,0.4494,0.4497,0.4492,0.4501,0.4506,0.4488,0.4485,0.4468,0.448,0.4521,0.4458,0.4457,0.4471,0.4558,0.4573,0.4581,0.4507,0.4508,0.4509,0.4559,0,0.4562,0.4581,0.4559,0.4583,0.4589,0.4558,0.4568,0.4561,0.4549,0.4553,0.454,0.4544,0.4518,0.4517,0.4527,0.4514,0.4538,0.451,0.4516,0.4517,0.452,0.4589,0.4606,0.4653,0.4565,0.4566,0.4566,0,0.462,0.4618,0.4642,0.4627,0.4629,0.4639,0.4636,0.4639,0.4631,0.4621,0.4619,0.4599,0.461,0.4582,0.4597,0.4579,0.458,0.4574,0.4575,0.4575,0.4545,0.4592,0.4668,0.4675,0.4576,0.4575,0.4574,0,0.4677,0.4679,0.4695,0.4692,0.4675,0.4683,0.4676,0.4666,0.4666,0.4664,0.4664,0.4663,0.4663,0.4663,0.4643,0.4624,0.4661,0.4631,0.4654,0.4655,0.4664,0.4663,0.4741,0.4664,0.4664,0.4664,0.4664,0,0.4733,0.4749,0.472,0.4729,0.4747,0.4722,0.474,0.473,0.4722,0.4729,0.4702,0.471,0.4683,0.4688,0.4672,0.4688,0.4688,0.4681,0.4677,0.4683,0.4684,0.4684,0.4681,0.4665,0.4665,0.4665,0.4664,0,0.4799,0.478,0.4794,0.4777,0.4773,0.4787,0.4772,0.478,0.4767,0.4777,0.4778,0.4757,0.4761,0.4741,0.4742,0.4732,0.4756,0.4745,0.4758,0.4756,0.478,0.4778,0.4861,0.4871,0.4787,0.4788,0.4788,0,0.4836,0.4848,0.4832,0.4835,0.483,0.4835,0.4836,0.4812,0.4814,0.4805,0.4815,0.4817,0.4817,0.4826,0.4811,0.4812,0.4802,0.4831,0.4802,0.4809,0.4803,0.4803,0.4805,0.4837,0.4838,0.4839,0.484,0,0.4905,0.4895,0.4897,0.4896,0.4897,0.4895,0.4891,0.4895,0.487,0.4873,0.4877,0.4878,0.4879,0.4882,0.488,0.4873,0.4853,0.4849,0.4854,0.4862,0.4869,0.4866,0.4775,0.4847,0.4846,0.4846,0.4846,0.4845,0.4958,0.4967,0.4958,0.4961,0.4956,0.4953,0.496,0.4948,0.4951,0.495,0.4936,0.4943,0.4935,0.493,0.4925,0.4931,0.4918,0.4925,0.4927,0.493,0.4934,0.4868,0.4931,0.493,0.493,0.493,0.493,0,0.5025,0.5018,0.5021,0.5017,0.502,0.5,0.4995,0.4999,0.5005,0.4999,0.5001,0.5006,0.5009,0.4995,0.4996,0.5003,0.4994,0.5004,0.5004,0.5003,0.4946,0.4942,0.5012,0.5012,0.5012,0.5012,0.5012,0.5012,0.5061,0.5076,0.5065,0.5078,0.507,0.5077,0.5076,0.5074,0.5069,0.5076,0.5079,0.5069,0.506,0.506,0.5062,0.5058,0.506,0.5074,0.5067,0.5014,0.5006,0.4999,0.4994,0.5074,0.5074,0.5123,0.5123,0.5123]}]]